Other Public Products
Issued by NWS Grand Forks, ND

Home | Current Version | Previous Version | Text Only | Print | Product List | Glossary On
Versions: 1 2 3 4 5 6 7 8 9 10 11 12 13 14 15 16 17 18 19 20 21 22 23 24 25 26 27 28 29 30 31 32 33 34 35 36 37 38 39 40 41 42 43 44 45 46 47 48 49 50
000
FPUS83 KFGF 050131
OPUFGF
PRAIRIE TO PINES WEATHER ROUNDUP
NATIONAL WEATHER SERVICE EASTERN NORTH DAKOTA/GRAND FORKS ND
800 PM CDT WED MAY 04 2016

 **SATELLITE DATA USED TO AUGMENT SKY COVER AT AUTOMATED STATIONS**
 *****  WEATHER ACROSS EASTERN NORTH DAKOTA  *****

CITY           SKY/WX    TMP DP  RH WIND       PRES   REMARKS
GRAND FORKS    MOCLDY    69  33  26 E6        29.94F
GRAND FORKS AF MOCLDY    68  32  26 SE6       29.95F
GRAND CITY NWS NOT AVBL
BUXTON           N/A     68  27  21 E2          N/A
DEVILS LAKE    PTCLDY    66  45  46 SE7       29.93F
FARGO          PTCLDY    70  24  17 N5        29.96F
WAHPETON ARPT  PTCLDY    63  25  23 N3        29.98S
$$

 *****  WEATHER ACROSS CENTRAL AND WESTERN NORTH DAKOTA  *****

CITY           SKY/WX    TMP DP  RH WIND       PRES   REMARKS
JAMESTOWN      PTCLDY    71  38  29 W5        29.96F
BISMARCK       CLEAR     73  47  39 S12       29.94F
MINOT          CLEAR     84  37  18 SW9       29.87F
MINOT AFB      CLEAR     81  40  22 SW9       29.85F
GARRISON         N/A     79  42  26 SE6       29.90F
WILLISTON      SUNNY     81  37  20 SW7       29.86F
DICKINSON      CLEAR     74  37  26 SW9       29.93F
HETTINGER      CLEAR     71  43  36 S8        29.99F
$$

 *****  OTHER OBSERVATIONS NORTHEAST NORTH DAKOTA  *****

CITY           SKY/WX    TMP DP  RH WIND       PRES   REMARKS
WALHALLA       FAIR      72  37  28 S7        29.89F
LANGDON        FAIR      66  34  30 S13       29.91F
CAVALIER       FAIR      68  37  32 S10       29.90F
GRAFTON        FAIR      66  36  32 S9        29.94F
CANDO          FAIR      70  37  30 S10       29.92F
FORT TOTTEN    NOT AVBL
ROLLA          FAIR      73  37  27 S9        29.90F
RUGBY          FAIR      75  41  29 S9        29.88F
 ***** THE ABOVE OBSERVATIONS ARE NON NWS ARE NOT QUALITY
        CONTROLLED AND MAY MIS-REPORT RAIN FOR SNOW...
$$

 *****  OTHER OBSERVATIONS SOUTHEAST NORTH DAKOTA *****

CITY           SKY/WX    TMP DP  RH WIND       PRES   REMARKS
COOPERSTOWN    NOT AVBL
VALLEY CITY    FAIR      68  28  22 SE3       29.99S
OAKES            N/A    N/A N/A N/A MISG        N/A
GWINNER        FAIR      70  28  21 CALM      29.98F
SHEYENNE NWR     N/A     68  33  27 CALM      29.95
BUFFALO          N/A     69  25  19 CALM        N/A
WYNDMERE         N/A     66  30  26 NW5         N/A
 ***** THE ABOVE OBSERVATIONS ARE NON NWS ARE NOT QUALITY
       CONTROLLED AND MAY MIS-REPORT RAIN FOR SNOW...
$$

  *****  WEATHER ACROSS NORTHERN MINNESOTA  *****

CITY           SKY/WX    TMP DP  RH WIND       PRES   REMARKS
FLAG ISLAND    PTCLDY    48  41  76 S7        29.93F
WARROAD        CLEAR     54  39  58 SE7       29.96F
ROSEAU         PTCLDY    63  34  34 SW3       29.96S
HALLOCK        PTCLDY    66  21  18 S8        29.92F
THF RVR FALLS  PTCLDY    64  27  24 W3        29.97F
HALSTAD          N/A     66  27  22 E3          N/A
FOSSTON        PTCLDY    59  19  21 CALM      29.98S
BAUDETTE       CLOUDY    56  25  30 CALM      29.97F
WASKISH        CLEAR     55  23  28 CALM      29.98S
CROOKSTON      PTCLDY    66  28  24 CALM      29.96F
$$
  *****  WEATHER ACROSS CENTRAL AND WEST MINNESOTA  *****

CITY           SKY/WX    TMP DP  RH WIND       PRES   REMARKS
BEMIDJI        CLEAR     56  22  26 NE3       29.98S
PARK RAPIDS    CLEAR     64  22  20 NE7       29.97R
WADENA         CLEAR     61  32  33 N5        29.97S
DETROIT LAKES  CLEAR     61  30  31 CALM      30.00S
MOORHEAD       PTCLDY    66  27  22 NE3       29.97F
FERGUS FALLS   PTCLDY    63  32  31 N5        29.96R
ELBOW LAKE     FAIR      63  35  36 NW5       29.99S
MORRIS MN      CLEAR     63  30  29 N7        29.97S
STAPLES        CLEAR     61  21  21 NE3       29.98R
WHEATON        CLEAR     64  34  32 NW3       29.99F
$$
  *****  WEATHER ELSEWHERE ACROSS MINNESOTA  *****

CITY           SKY/WX    TMP DP  RH WIND       PRES   REMARKS
DULUTH         CLEAR     48  25  40 E8        29.97R
INTRNTL FALLS  CLEAR     58  17  20 NE3       29.96F
ELY            CLEAR     54  21  28 CALM      29.97S
CLOQUET        CLEAR     50  21  32 CALM      29.97S
BRAINERD       CLEAR     60  24  25 N8        29.98R
HIBBING        CLEAR     55  16  21 N6        29.96S
ALEXANDRIA     CLEAR     62  26  25 NW9       29.99S
SAINT CLOUD    CLEAR     62  23  22 N8        29.96R
MINNEAPOLIS    PTCLDY    62  22  21 N12G20    29.95R
$$

  *****  WEATHER ACROSS SOUTH DAKOTA  *****

CITY           SKY/WX    TMP DP  RH WIND       PRES   REMARKS
SIOUX FALLS    PTCLDY    61  34  36 N8        29.99S
BROOKINGS      NOT AVBL
WATERTOWN      CLEAR     61  36  39 N8        30.00F
HURON          CLEAR     66  44  45 NW6       30.00F
SISSETON         N/A     65  31  28 N6        29.98S
ABERDEEN       CLEAR     72  36  26 N3        29.99F
MITCHELL       CLEAR     66  40  38 NW5       30.01F
PIERRE         CLEAR     71  48  43 CALM      30.00F
MOBRIDGE       CLEAR     71  48  43 SE8       29.97F
RAPID CITY     CLEAR     68  45  43 SE9       30.01F
$$

  *****  SOME WEATHER IN NEARBY STATES *****

CITY           SKY/WX    TMP DP  RH WIND       PRES   REMARKS
GLASGOW MT     SUNNY     81  40  23 E10       29.82F
GREAT FALLS MT MOSUNNY   77  35  21 NW9       29.87F
CHEYENNE WY    PTCLDY    66  33  29 S12       30.16S
SCOTTSBLUFF NE CLEAR     72  41  32 SE12      30.07F
OMAHA NE       PTCLDY    64  42  44 N8        29.99S
DES MOINES IA  CLEAR     65  30  27 N12       29.93F
DAVENPORT IA   CLEAR     56  34  43 N10       29.87R
CHICAGO IL     MOCLDY    44  35  70 N14       29.85R
EAU CLAIRE WI  CLEAR     56  21  25 NE9       29.94R
LA CROSSE WI   CLEAR     59  25  27 N9        29.90R
$$

  *****  SOME NATIONAL WEATHER *****

CITY           SKY/WX    TMP DP  RH WIND       PRES   REMARKS
LA GUARDIA NY  CLOUDY    52  48  86 NE15      29.75R
RALEIGH NC     PTCLDY    61  49  64 CALM      29.62R
ATLANTA GA     CLOUDY    60  48  64 N23G37    29.75R
NEW ORLEANS LA CLEAR     71  51  49 NW8       29.87S
OKLAHOMA CITY  CLEAR     73  42  32 N12       30.00S
ALBUQUERQUE NM PTCLDY    76  20  12 W6        30.15F
SALT LAKE CITY PTSUNNY   80  29  15 S8        29.94F
LOS ANGELES CA MOSUNNY   61  52  72 W13       29.91R
BOISE ID       CLOUDY    80  33  18 W6        29.81F
SEATTLE WA     PTSUNNY   58  44  60 N9        30.00F
$$

*** WEATHER ACROSS MANITOBA...SASKATCHEWAN AND ONTARIO ***
                ***ONTARIO***

CITY           SKY/WX    TMP DP  RH WIND       PRES   REMARKS
GERALDTON      MOCLDY    36  32  87 NE3       29.99S
THUNDER BAY    PTCLDY    46  32  57 S10       29.98R
SIOUX LOOKOUT  MOCLDY    50  21  32 SW5       29.93F
TORONTO        MOCLDY    52  41  66 E6        29.73R
BIG TROUT LK   CLOUDY    45  16  31 SE8       29.85F
PICKLE LAKE    MOCLDY    50  16  25 SW8       29.91S
DRYDEN         MOCLDY    55  16  21 S7        29.92F
KENORA         MOCLDY    55  21  26 S6        29.94R
$$
                *** MANITOBA***

CITY           SKY/WX    TMP DP  RH WIND       PRES   REMARKS
BRANDON        PTCLDY    81  41  24 SW10      29.80F
DAUPHIN        CLEAR     82  41  23 SW15      29.71F
ISLAND LAKE    LGT RAIN  52  34  50 S8        29.75S
PILOT MOUND      N/A     73  34  23 S17         N/A
THE PAS        PTSUNNY   75  48  38 SE12      29.60F
THOMPSON       PTCLDY    64  41  42 S10G17    29.62F
WINNIPEG       MOCLDY    64  34  32 S12       29.87F
LYNN LAKE      SUNNY     75  39  27 NW5       29.59F
CHURCHILL      PTCLDY    46  34  61 SE8       29.61S
GILLAM         CLEAR     59  36  41 SW12      29.63S
$$
                ***SASKATCHEWAN***

CITY           SKY/WX    TMP DP  RH WIND       PRES   REMARKS
ESTEVAN        MOSUNNY   81  37  21 SW12      29.84S
KINDERSLEY     PTSUNNY   84  34  16 W17       29.74S
LLOYDMINSTER   PTSUNNY   77  34  20 W8        29.70F
PRINCE ALBERT  MOSUNNY   84  36  17 W10G23    29.61S
REGINA         MOSUNNY   84  36  17 W14       29.76F
YORKTON        SUNNY     82  37  20 W9        29.73F   C1F1C2F2C3F3C4F4C5F5C6F6C7F7C8F8C9F9CaFaCbFbCcFcCdFdCe!



USA.gov is the U.S. government's official web portal to all federal, state and local government web resources and services.